Weather History for KPKD - March, 2013

Change the Weather History Date:

Saturday, March 9, 2013

  Actual Average Record
Temperature  
Mean Temperature 30 °F -  
Max Temperature 33 °F 34 °F 53 °F (1977)
Min Temperature 28 °F 9 °F -22 °F (1951)
Degree Days  
Heating Degree Days 34    
Moisture  
Dew Point 29 °F    
Average Humidity 93    
Maximum Humidity 100    
Minimum Humidity 86    
Precipitation  
Precipitation 0.73 in - - ()
Sea Level Pressure  
Sea Level Pressure 29.85 in    
Wind  
Wind Speed 6 mph (ENE)    
Max Wind Speed 16 mph    
Max Gust Speed -    
Visibility 2 miles    
Events Fog , Rain , Snow    
Averages and records for this station are not official NWS values.
T = Trace of Precipitation, MM = Missing Value Source: NWS Daily Summary

Daily Weather History Graph

Daily Weather History Graph

Search for Another Location

Airport or City:

Trip Planner

Search our weather history database for the weather conditions in past years. The results will help you decide how hot, cold, wet, or windy it might be!

Date:

Astronomy

Mar. 09, 2013 Rise Set
Actual Time 6:44 AM CST 6:17 PM CST
Civil Twilight 6:14 AM CST 6:48 PM CST
Nautical Twilight 5:38 AM CST 7:23 PM CST
Astronomical Twilight 5:03 AM CST 7:59 PM CST
Moon 5:15 AM CST (3/9) 4:15 PM CST (3/9)
Length of Visible Light 12h 34m
Length of Day
11h 33m
Waning Crescent, 5% of the Moon is Illuminated
Mar 9
Waning Crescent
Mar 11
New
Mar 19
First Quarter
Mar 27
Full
Apr 2
Last Quarter

Hourly Weather History & Observations

Time (CST) Temp. Windchill Dew Point Humidity Pressure Visibility Wind Dir Wind Speed Gust Speed Precip Events Conditions
12:23 AM 28.4 °F 23.3 °F 24.8 °F 86% 30.01 in 5.0 mi ESE 4.6 mph - 0.00 in   Overcast
12:38 AM 30.2 °F 25.4 °F 26.6 °F 86% 30.00 in 3.0 mi ESE 4.6 mph - 0.01 in Rain Light Freezing Rain
12:46 AM 30.2 °F 23.4 °F 26.6 °F 86% 30.00 in 2.5 mi ESE 6.9 mph - 0.03 in Rain Light Freezing Rain
12:53 AM 30.0 °F 23.2 °F 27.0 °F 88% 30.06 in 2.5 mi ESE 6.9 mph - 0.05 in Snow Light Snow
1:04 AM 30.2 °F 23.4 °F 28.4 °F 93% 29.99 in 1.5 mi ESE 6.9 mph - 0.02 in Snow Light Snow
1:30 AM 30.2 °F 23.4 °F 28.4 °F 93% 29.98 in 0.8 mi East 6.9 mph - 0.09 in Snow Light Snow
1:42 AM 30.2 °F 23.4 °F 28.4 °F 93% 29.98 in 1.2 mi East 6.9 mph - 0.12 in Snow Light Snow
1:53 AM 30.0 °F 23.2 °F 28.0 °F 92% 30.03 in 0.8 mi East 6.9 mph - 0.14 in Snow Light Snow
2:01 AM 30.2 °F 23.4 °F 28.4 °F 93% 29.96 in 0.8 mi East 6.9 mph - 0.02 in Snow Light Snow
2:12 AM 30.2 °F 24.3 °F 28.4 °F 93% 29.95 in 0.8 mi East 5.8 mph - 0.04 in Snow Light Snow
2:53 AM 30.0 °F 25.2 °F 28.9 °F 96% 29.98 in 0.5 mi ESE 4.6 mph - 0.14 in Fog , Snow Snow
3:46 AM 30.2 °F 23.4 °F 28.4 °F 93% 29.89 in 1.2 mi ESE 6.9 mph - 0.07 in Snow Light Snow
3:53 AM 30.0 °F 24.1 °F 28.9 °F 96% 29.95 in 1.5 mi ESE 5.8 mph - 0.07 in Snow Light Snow
4:18 AM 30.2 °F 24.3 °F 28.4 °F 93% 29.88 in 0.8 mi ESE 5.8 mph - 0.02 in Snow Light Snow
4:30 AM 30.2 °F 24.3 °F 28.4 °F 93% 29.88 in 0.5 mi ESE 5.8 mph - 0.04 in Fog , Snow Snow
4:39 AM 30.2 °F 23.4 °F 28.4 °F 93% 29.88 in 0.2 mi ESE 6.9 mph - 0.06 in Fog , Snow Heavy Snow
4:51 AM 30.2 °F 23.4 °F 28.4 °F 93% 29.88 in 0.5 mi ESE 6.9 mph - 0.08 in Fog , Snow Snow
4:53 AM 30.0 °F 24.1 °F 28.0 °F 92% 29.94 in 0.5 mi ESE 5.8 mph - 0.08 in Fog , Snow Snow
5:08 AM 30.2 °F 24.3 °F 28.4 °F 93% 29.88 in 1.2 mi East 5.8 mph - 0.01 in Snow Light Snow
5:22 AM 28.4 °F 23.3 °F 28.4 °F 100% 29.87 in 1.0 mi East 4.6 mph - 0.02 in Snow Light Snow
5:53 AM 28.4 °F 22.2 °F 28.4 °F 100% 29.86 in 1.0 mi East 5.8 mph - N/A Snow Light Snow
6:03 AM 28.4 °F 22.2 °F 28.4 °F 100% 29.86 in 0.8 mi East 5.8 mph - 0.01 in Snow Light Snow
6:10 AM 28.4 °F 22.2 °F 28.4 °F 100% 29.86 in 1.2 mi East 5.8 mph - 0.01 in Snow Light Snow
6:24 AM 28.4 °F 23.3 °F 28.4 °F 100% 29.86 in 1.5 mi East 4.6 mph - 0.01 in Snow Light Snow
6:53 AM 30.0 °F 24.1 °F 28.0 °F 92% 29.91 in 1.5 mi East 5.8 mph - 0.02 in Snow Light Snow
7:20 AM 30.2 °F 24.3 °F 28.4 °F 93% 29.85 in 1.5 mi East 5.8 mph - 0.01 in Snow Light Snow
7:33 AM 30.2 °F 24.3 °F 28.4 °F 93% 29.83 in 1.5 mi East 5.8 mph - 0.01 in Snow Light Snow
7:53 AM 30.0 °F 24.1 °F 28.0 °F 92% 29.89 in 1.8 mi East 5.8 mph - 0.02 in   Overcast
8:18 AM 30.2 °F 26.7 °F 28.4 °F 93% 29.84 in 1.0 mi ESE 3.5 mph - 0.00 in Rain Light Freezing Rain
8:53 AM 30.0 °F 24.1 °F 28.9 °F 96% 29.87 in 1.2 mi East 5.8 mph - 0.00 in   Overcast
11:18 AM 30.2 °F 26.7 °F 30.2 °F 100% 29.78 in 1.0 mi SE 3.5 mph - N/A   Mist
11:33 AM 32.0 °F 28.7 °F 30.2 °F 93% 29.77 in 0.8 mi SE 3.5 mph - N/A   Mist
11:40 AM 32.0 °F 27.5 °F 30.2 °F 93% 29.77 in 0.8 mi ESE 4.6 mph - N/A   Overcast
11:51 AM 32.0 °F 28.7 °F 30.2 °F 93% 29.77 in 1.0 mi ESE 3.5 mph - N/A   Overcast
11:53 AM 32.0 °F 28.7 °F 30.9 °F 96% 29.83 in 1.0 mi SE 3.5 mph - N/A   Overcast
12:53 PM 32.0 °F - 30.9 °F 96% 29.81 in 0.8 mi Calm Calm - N/A   Overcast
1:21 PM 33.8 °F - 30.2 °F 87% 29.74 in 1.0 mi Calm Calm - N/A   Overcast
1:53 PM 33.1 °F - 30.9 °F 92% 29.79 in 1.0 mi Calm Calm - 0.01 in Snow Light Snow
2:20 PM 33.8 °F 30.8 °F 30.2 °F 87% 29.72 in 1.5 mi North 3.5 mph - 0.01 in Snow Light Snow
2:53 PM 33.1 °F - 30.9 °F 92% 29.77 in 1.0 mi Calm Calm - 0.02 in Snow Light Snow
3:00 PM 33.8 °F 30.8 °F 30.2 °F 87% 29.71 in 0.8 mi North 3.5 mph - 0.00 in Snow Light Snow
3:06 PM 33.8 °F - 30.2 °F 87% 29.71 in 0.5 mi Calm Calm - 0.01 in Fog , Snow Snow
3:53 PM 32.0 °F 26.4 °F 30.9 °F 96% 29.78 in 0.8 mi NNW 5.8 mph - 0.04 in Snow Light Snow
3:59 PM 32.0 °F 25.6 °F 30.2 °F 93% 29.72 in 1.0 mi NNW 6.9 mph - 0.01 in Snow Light Snow
4:10 PM 32.0 °F 27.5 °F 30.2 °F 93% 29.73 in 0.8 mi NNW 4.6 mph - 0.01 in Snow Light Snow
4:17 PM 32.0 °F 27.5 °F 30.2 °F 93% 29.73 in 0.8 mi NNW 4.6 mph - 0.02 in Snow Light Snow
4:49 PM 32.0 °F 23.6 °F 30.2 °F 93% 29.73 in 0.5 mi North 10.4 mph - 0.04 in Fog , Snow Snow
4:53 PM 32.0 °F 24.2 °F 30.0 °F 92% 29.79 in 0.5 mi North 9.2 mph - 0.04 in Fog , Snow Snow
5:07 PM 32.0 °F 24.2 °F 30.2 °F 93% 29.73 in 0.2 mi North 9.2 mph - 0.02 in Fog , Snow Snow
5:35 PM 32.0 °F 25.6 °F 30.2 °F 93% 29.73 in 0.5 mi North 6.9 mph - 0.05 in Fog , Snow Snow
5:53 PM 32.0 °F 24.8 °F 30.0 °F 92% 29.81 in 0.5 mi NNW 8.1 mph - 0.06 in Fog , Snow Snow
6:14 PM 32.0 °F 23.6 °F 30.2 °F 93% 29.76 in 1.0 mi North 10.4 mph - 0.01 in Snow Light Snow
6:23 PM 32.0 °F 25.6 °F 30.2 °F 93% 29.76 in 1.8 mi NNW 6.9 mph - 0.02 in Snow Light Snow
6:53 PM 32.0 °F 24.8 °F 30.0 °F 92% 29.83 in 1.5 mi NNW 8.1 mph - 0.02 in Snow Light Snow
7:04 PM 32.0 °F 24.2 °F 30.2 °F 93% 29.78 in 1.8 mi NNW 9.2 mph - 0.01 in Snow Light Snow
7:20 PM 32.0 °F 24.8 °F 30.2 °F 93% 29.79 in 2.0 mi NNW 8.1 mph - 0.01 in Snow Light Snow
7:50 PM 30.2 °F 21.9 °F 30.2 °F 100% 29.79 in 1.8 mi NNW 9.2 mph - 0.01 in Snow Light Snow
7:53 PM 30.9 °F 22.8 °F 28.9 °F 92% 29.85 in 2.0 mi NNW 9.2 mph - 0.01 in Snow Light Snow
8:07 PM 30.2 °F 21.3 °F 28.4 °F 93% 29.79 in 2.0 mi NNW 10.4 mph - 0.01 in Snow Light Snow
8:21 PM 30.2 °F 22.6 °F 28.4 °F 93% 29.79 in 2.5 mi NNW 8.1 mph - 0.01 in Snow Light Snow
8:37 PM 30.2 °F 21.3 °F 28.4 °F 93% 29.80 in 3.0 mi NNW 10.4 mph - 0.01 in Snow Light Snow
8:53 PM 30.0 °F 21.1 °F 27.0 °F 88% 29.86 in 4.0 mi NNW 10.4 mph - 0.01 in   Overcast
9:18 PM 30.2 °F 21.3 °F 26.6 °F 86% 29.81 in 4.0 mi NNW 10.4 mph - N/A   Overcast
9:53 PM 30.0 °F 22.4 °F 28.0 °F 92% 29.88 in 5.0 mi NNW 8.1 mph - N/A   Overcast
10:06 PM 30.2 °F 21.3 °F 28.4 °F 93% 29.82 in 5.0 mi NNW 10.4 mph - N/A   Overcast
10:16 PM 30.2 °F 20.2 °F 28.4 °F 93% 29.82 in 5.0 mi NNW 12.7 mph - N/A   Overcast
10:53 PM 28.9 °F 17.3 °F 27.0 °F 92% 29.90 in 4.0 mi NNW 16.1 mph - N/A   Overcast
11:53 PM 28.0 °F 17.5 °F 26.1 °F 92% 29.91 in 3.0 mi NNW 12.7 mph - N/A   Overcast